Regional Weather Roundup
Issued by NWS

Home | Current Version | Previous Version | Text Only | Print | Product List | Glossary On
Versions: 1 2 3 4 5 6 7 8 9 10 11 12 13 14 15 16 17 18 19 20 21 22 23 24 25 26 27 28 29 30 31 32 33 34 35 36 37 38 39 40 41 42 43 44 45 46 47 48 49 50
000
ASUS43 KMPX 050810
RWRMN
WEATHER ROUNDUP FOR MINNESOTA
NATIONAL WEATHER SERVICE TWIN CITIES/CHANHASSEN MN
300 AM CDT TUE MAY 05 2015


NOTE: "FAIR" INDICATES FEW OR NO CLOUDS BELOW 12,000 FEET WITH NO
SIGNIFICANT WEATHER AND/OR OBSTRUCTIONS TO VISIBILITY. N/A MEANS
CURRENT SKY AND/OR WEATHER CONDITIONS ARE NOT AVAILABLE.

MNZ060>063-068>070-050900-
   Twin Cities Metro

CITY           SKY/WX    TMP DP  RH WIND       PRES   REMARKS
TWIN CITIES    PTCLDY    54  30  40 NE6       30.18F
ST PAUL        PTCLDY    54  29  38 VRB3      30.19F
CRYSTAL        PTCLDY    49  30  48 CALM      30.18F
BLAINE         CLEAR     50  30  46 CALM      30.20F
LAKEVILLE      MOCLDY    48  34  57 NE3       30.17F
EDEN PRAIRIE   PTCLDY    53  29  39 NE6       30.17F
SOUTH ST PAUL  PTCLDY    55  29  37 CALM      30.18F
LAKE ELMO      FAIR      52  32  46 NE7       30.20F
$$
MNZ001>005-007-008-013>017-022>024-027-028-050900-
   Northwest Minnesota

CITY           SKY/WX    TMP DP  RH WIND       PRES   REMARKS
BEMIDJI        CLEAR     35  27  72 CALM      30.23S
HALLOCK        CLEAR     39  18  41 S7        30.16S
ROSEAU         CLEAR     43  28  56 S9        30.18F
WARROAD        CLEAR     43  30  61 S6        30.20S
THIEF RVR FALL CLEAR     48  25  40 SE9       30.20S
CROOKSTON      CLEAR     41  28  60 SE8       30.20S
FOSSTON        CLEAR     45  27  49 SE6       30.22S
DETROIT LAKES  CLEAR     46  34  61 E3        30.22F
MOORHEAD       CLEAR     46  27  46 SE5       30.20S
PARK RAPIDS    CLEAR     38  30  73 CALM      30.22F
MAHNOMEN       FAIR      45  31  58 SE7       30.21S
$$
MNZ006-009>011-018-025>026-050900-
   North Central Minnesota

CITY           SKY/WX    TMP DP  RH WIND       PRES   REMARKS
BAUDETTE       CLEAR     38  31  76 CALM      30.21S
FLAG ISLAND    CLEAR     50  39  66 SE6       30.18S
INTL FALLS     CLEAR     31  28  89 SE3       30.22S
WASKISH        CLEAR     41  28  60 CALM      30.22S
BIG FORK       CLEAR     30  27  86 CALM      30.25S
LONGVILLE      CLEAR     32  30  93 CALM      30.24S
GRAND RAPIDS   CLEAR     36  25  64 CALM      30.25S
CRANE LAKE     CLEAR     28  27  93 CALM      30.26S
ORR            CLEAR     45  25  45 CALM      30.23R
COOK           CLEAR     30  27  86 CALM      30.25S FOG
WALKER         FAIR      40  28  60 CALM      30.24S
$$
MNZ012-019>021-037-050900-
   Northeast Minnesota

CITY           SKY/WX    TMP DP  RH WIND       PRES   REMARKS
DULUTH         CLEAR     37  28  70 CALM      30.25S
ELY            CLEAR     30  27  86 CALM      30.26S
HIBBING        CLEAR     30  24  78 NW3       30.25R
EVELETH        CLEAR     32  32 100 CALM      30.27R
DULUTH HARBOR  CLEAR     43  37  81 CALM      30.27S
TWO HARBORS    CLEAR     37  30  75 N3        30.24S
SILVER BAY     CLEAR     32  27  80 CALM      30.25S
GRAND MARAIS     N/A     36  30  79 CALM      30.26R
G MARAIS ARPRT CLEAR     34  25  69 CALM      30.27S
$$
MNZ029>031-032-039>041-046>048-054>057-064-050900-
   West Central Minnesota

CITY           SKY/WX    TMP DP  RH WIND       PRES   REMARKS
FERGUS FALLS   CLEAR     54  28  37 E7        30.20F
WHEATON        CLEAR     37  27  65 E7        30.20F
MORRIS         CLEAR     45  30  57 E9        30.18F
ALEXANDRIA     CLEAR     49  27  42 E6        30.21F
ELBOW LAKE     FAIR      52  32  46 E8        30.19F
WADENA         CLEAR     39  30  70 CALM      30.21F
GLENWOOD       CLEAR     45  28  53 E8        30.21F
APPLETON       CLEAR     43  32  65 E5        30.18F
BENSON         CLEAR     50  27  40 SE7       30.19F
ORTONVILLE     CLEAR     50  30  46 E8        30.17F
MADISON        CLEAR     45  28  53 E7        30.17F
WILLMAR        FAIR      54  27  35 E10       30.20F
$$
MNZ033>034-036-042>043-049>051-058-059-050900-
   Central Minnesota

CITY           SKY/WX    TMP DP  RH WIND       PRES   REMARKS
ST CLOUD       CLEAR     50  21  32 NE6       30.21F
SAUK CENTRE    FAIR      48  27  43 E7        30.21F
PAYNESVILLE    CLEAR     41  30  65 N5        30.21F
AITKIN         CLEAR     32  27  80 CALM      30.23S
PINE RIVER     CLEAR     34  28  80 CALM      30.26F
BRAINERD       CLEAR     35  28  75 CALM      30.24S
STAPLES        FAIR      39  32  75 CALM      30.22F
LONG PRAIRIE   FAIR      43  32  65 N3        30.22S
LITTLE FALLS   CLEAR     37  28  70 CALM      30.22F
LITCHFIELD     CLEAR     52  28  40 NE3       30.20F
BUFFALO        CLEAR     49  30  47 NE8       30.20F
MAPLE LAKE     CLEAR     49  30  47 NE5       30.21F
$$
MNZ037-044-045-052-053-050900-
   East Central Minnesota

CITY           SKY/WX    TMP DP  RH WIND       PRES   REMARKS
PRINCETON      CLEAR     50  25  37 NE6       30.22F
MORA           CLEAR     36  32  87 CALM      30.24F
CAMBRIDGE      CLEAR     39  30  70 CALM      30.20F
RUSH CITY      PTCLDY    46  25  43 NE3       30.23S
MOOSE LAKE     CLEAR     34  32  93 CALM      30.24S
HINCKLEY       FAIR      34  28  80 CALM      30.24F
CLOQUET        CLEAR     36  25  64 CALM      30.25F
MCGREGOR       CLEAR     34  30  86 CALM      30.24F
$$
MNZ071>073-080-081-089-090-097-098-050900-
   Southwest Minnesota

CITY           SKY/WX    TMP DP  RH WIND       PRES   REMARKS
MONTEVIDEO     CLEAR     45  28  53 E5        30.18F
GRANITE FALLS  CLEAR     48  29  47 NE7       30.19F
CANBY          CLEAR     40  31  70 CALM      30.18F
MARSHALL       PTCLDY    45  23  42 CALM      30.16F
REDWOOD FALLS  PTCLDY    55  27  34 E9        30.16F
OLIVIA         CLEAR     48  27  43 E7        30.17F
PIPESTONE      CLEAR     50  28  43 E5        30.14S
WINDOM         MOCLDY    50  32  50 NE8       30.14F
WORTHINGTON    PTCLDY    46  28  49 NE8       30.14F
JACKSON        MOCLDY    54  30  40 NE10      30.14F
TRACY          PTCLDY    49  32  52 CALM      30.16F
SLAYTON        CLEAR     48  30  49 CALM      30.16F
$$
MNZ065>067-074>077-082>085-091>093-050900-
   South Central Minnesota

CITY           SKY/WX    TMP DP  RH WIND       PRES   REMARKS
MANKATO        MOCLDY    54  36  50 NE7       30.15F
NEW ULM        PTCLDY    54  28  37 NE5       30.16F
ST JAMES       MOCLDY    52  34  50 N6        30.16S
FAIRMONT       CLOUDY    55  30  38 N7        30.14S
GLENCOE        PTCLDY    52  31  44 N6        30.16F
FARIBAULT      MOCLDY    48  37  66 N5        30.16F
OWATONNA       CLOUDY    55  32  41 NE7       30.15F
WASECA         MOCLDY    52  34  50 NE7       30.16F
ALBERT LEA     CLOUDY    55  37  50 NE7       30.13F
$$
MNZ078>079-086>088-094>096-050900-
   Southeast Minnesota

CITY           SKY/WX    TMP DP  RH WIND       PRES   REMARKS
ROCHESTER      CLOUDY    54  37  52 NE9       30.16F
RED WING       MOCLDY    52  34  50 SE5       30.17F
STANTON        MOCLDY    43  37  79 CALM      30.16F
DODGE CENTER   CLOUDY    54  34  47 NE7       30.15F
WINONA         CLOUDY    52  45  76 CALM      30.17F
AUSTIN         CLOUDY    55  41  58 NE8       30.13F
PRESTON        CLOUDY    55  38  51 NE7       30.15F
$$
ABBREVIATIONS USED IN REMARKS
   TC - TEMPERATURES IN CELSIUS
  WCI - WIND CHILL INDEX
   HX - HEAT INDEX
  VSB - VISIBILITY
$$



USA.gov is the U.S. government's official web portal to all federal, state and local government web resources and services.